TRA80F GCFV-EHAM

Flight info

Callsign TRA80F
Flight time N/A
Altitude 38000
Route VASTO DCT BAROK DCT SOTEX DCT TOFEF DCT BARDI DCT ZMR DCT NUBLO DCT RONSI DCT DELOG DCT DIDIG DCT USODA DCT ERCUT DCT DITAL UN873 BAZOS DCT BELDI DCT VEKIN DCT ADUTO N873 FERDI Y18 DENUT
Aircraft B738/M-SDE2E3FGHIJ1RWXYZ/LB1

Departure

Time 2026-05-05 17:31
Airport Fuerteventura Airport (GCFV)

Arrival

Time N/A
Airport Amsterdam Airport Schiphol (EHAM)
Time Latitude Longitude Altitude Speed Heading
2026-05-05 16:44 28.45607 -13.86823 98 ft 0 kts 271°
2026-05-05 17:22 28.45607 -13.86822 98 ft 2 kts 271°
2026-05-05 17:22 28.45607 -13.86795 98 ft 4 kts 267°
2026-05-05 17:22 28.45610 -13.86764 97 ft 4 kts 257°
2026-05-05 17:22 28.45619 -13.86737 98 ft 4 kts 228°
2026-05-05 17:23 28.45634 -13.86727 97 ft 0 kts 181°
2026-05-05 17:25 28.45627 -13.86727 96 ft 2 kts 181°
2026-05-05 17:26 28.45592 -13.86728 98 ft 8 kts 182°
2026-05-05 17:26 28.45521 -13.86730 98 ft 12 kts 181°
2026-05-05 17:26 28.45423 -13.86734 99 ft 13 kts 182°
2026-05-05 17:26 28.45371 -13.86670 97 ft 14 kts 92°
2026-05-05 17:27 28.45352 -13.86577 96 ft 13 kts 144°
2026-05-05 17:27 28.45250 -13.86571 94 ft 16 kts 181°
2026-05-05 17:27 28.45125 -13.86575 94 ft 19 kts 181°
2026-05-05 17:27 28.44980 -13.86580 94 ft 22 kts 182°
2026-05-05 17:28 28.44810 -13.86586 87 ft 28 kts 181°
2026-05-05 17:28 28.44621 -13.86591 73 ft 29 kts 181°
2026-05-05 17:28 28.44412 -13.86598 66 ft 32 kts 181°
2026-05-05 17:28 28.44223 -13.86605 60 ft 27 kts 182°
2026-05-05 17:29 28.44028 -13.86610 52 ft 29 kts 182°
2026-05-05 17:29 28.43822 -13.86619 44 ft 30 kts 181°
2026-05-05 17:29 28.43616 -13.86625 39 ft 29 kts 181°
2026-05-05 17:29 28.43436 -13.86631 35 ft 17 kts 181°
2026-05-05 17:30 28.43308 -13.86629 32 ft 20 kts 181°
2026-05-05 17:30 28.43260 -13.86511 32 ft 19 kts 68°
2026-05-05 17:30 28.43369 -13.86439 33 ft 22 kts
2026-05-05 17:30 28.43689 -13.86428 31 ft 80 kts
2026-05-05 17:31 28.44462 -13.86404 55 ft 139 kts
2026-05-05 17:31 28.45519 -13.86341 473 ft 156 kts
2026-05-05 17:31 28.46603 -13.86154 1159 ft 165 kts 20°
2026-05-05 17:31 28.47606 -13.85551 2007 ft 159 kts 34°
2026-05-05 17:32 28.48530 -13.84773 2557 ft 174 kts 34°
2026-05-05 17:32 28.49606 -13.83993 3028 ft 190 kts 30°
2026-05-05 17:32 28.50762 -13.83175 3534 ft 203 kts 33°
2026-05-05 17:32 28.51975 -13.82222 3809 ft 222 kts 33°
2026-05-05 17:33 28.53280 -13.81179 4224 ft 234 kts 33°
2026-05-05 17:33 28.54624 -13.80093 4785 ft 246 kts 32°
2026-05-05 17:33 28.56167 -13.79112 5095 ft 265 kts 22°
2026-05-05 17:33 28.57901 -13.78309 5723 ft 273 kts 19°
2026-05-05 17:34 28.59696 -13.77511 6426 ft 279 kts 19°
2026-05-05 17:34 28.61518 -13.76701 7115 ft 284 kts 18°
2026-05-05 17:34 28.63377 -13.75883 7812 ft 288 kts 18°
2026-05-05 17:34 28.65262 -13.75064 8529 ft 292 kts 17°
2026-05-05 17:35 28.67170 -13.74208 9214 ft 298 kts 18°
2026-05-05 17:35 28.69098 -13.73270 9902 ft 304 kts 19°
2026-05-05 17:35 28.71056 -13.72281 10384 ft 316 kts 19°
2026-05-05 17:35 28.73135 -13.71225 10543 ft 339 kts 20°
2026-05-05 17:36 28.75354 -13.70094 10770 ft 358 kts 20°